星链-35578(STARLINK-35578)

导读 | 豆包AI

STARLINK-35578是美国SpaceX公司星链星座的成员卫星,于2025年10月25日发射入轨。星链项目旨在搭建全球卫星互联网星座,为全球提供高速低延迟网络服务。该卫星延续星链标准设计,依托一箭多星发射模式部署,进一步扩充了星链星座的在轨规模,提升星座覆盖密度与服务能力。

Basic Information
目录编号:
66168
目录名称:
STARLINK-35578
国际标识:
2025-240Y
轨道中心:
EARTH
卫星名称:
星链-35578
卫星全名:
星链-35578(STARLINK-35578)
卫星状态:
在轨 (已飞行212 天)
发射日期:
2025-10-25 UTC
国别 :
美国 (US)
星等 :
--
Orbit Information
数据来源 国际轨道数据 AOE轨道数据
星历时间 2026-05-25T12:52:40+0800
6小时前
查看轨道信息
2026-05-21T22:00:00+0800
3天前
查看轨道信息
半长轴 6853.42km 6853.422km
偏心率 0.0000975 0.0001247
轨道倾角 53.158° 53.160°
近地点辐角 105.171° 103.024°
升交点赤经 67.357° 84.172°
平近点角 254.940° 104.916°
近地点 474.614km 474.43km
远地点 475.952km 476.14km
周期 94.107分钟 94.107分钟
每日圈数 15.301773 15.301767
Detailed Information
固有亮度:
5
最大亮度:
2.5
卫星平台:
Starlink V1.0
覆盖范围:
全球
运营商:
太空探索技术公司
运营商所在国:
美国
制造商(研发单位):
太空探索技术公司
制造商所在国:
美国
使用方式:
暂无
Satellite Introduction
Starlink 计划是 SpaceX 推出的全球卫星互联网项目,通过发射低轨道卫星,为全球尤其是偏远地区提供高速、低延迟的互联网服务。自 2019 年起,Starlink 已部署数千颗卫星,旨在缩小全球数字鸿沟,推动互联网普及。该项目还为军事、航空等行业提供通信支持,带来广泛经济效益。
2D Orbit Map
3D Orbit Map
Orbit Altitude Analysis Chart
Orbit Inclination Analysis Chart
Orbit Comprehensive Analysis Chart
View Comprehensive Chart